Location: Berg
(48.4333°N, 13.9167°E)
Time: 08:38:00
(UTC+00:00)

Cosmos 2278 Rocket - Pass Details

Date: 18 September 2020
Orbit: 841 x 845 km, 71.0° (Epoch: 24 October)

Event Time Altitude Azimuth Distance (km) Brightness Sun altitude
Exits shadow 21:22:24 25° 19° (NNE) 1,662 4.0 -36.0°
Drops below altitude 10° 21:24:38 10° 25° (NNE) 2,470 5.0 -36.2°
Sets 21:27:06 0° 27° (NNE) 3,409 5.7 -36.4°
